Location: *
(50.8667°S, 179.2667°W)
Time: 02:28:47
(UTC+00:00)

Iridium 4 Rocket - Pass Details

Date: 02 October 2023
Orbit: 582 x 898 km, 86.9° (Epoch: 01 December)

Event Time Altitude Azimuth Distance (km) Brightness Sun altitude
Exits shadow 14:41:27 64° 45° (NE) 671 3.1 -23.9°
Maximum altitude 14:41:55 71° 90° (E) 643 3.1 -23.9°
Drops below altitude 10° 14:46:17 10° 173° (S) 2,014 6.3 -23.4°
Sets 14:48:35 0° 175° (S) 2,963 7.2 -23.1°
